ONEWEB-0332 (49279 NORAD) Tracking and Keplerian Element Data

This shows tracking and keplerian element data for the satellite.

Feedback or suggestion? Click here.




ElementValue
Catalog49279
NameONEWEB-0332
Epoch Orbit353
Epoch Day339.91667824
Epoch Year2021
RAAN275.0321
Inclination87.1991
Eccentricity0.0010532
Argument of Perigee75.8057
Mean Anonmoly227.8433
Mean Motion14.88421783
Decay Rate-0.00052589
L11 49279U 21090A 21339.91667824 -.00052589 00000+0 -57205-2 0 9995
L22 49279 87.1991 275.0321 0010532 75.8057 227.8433 14.88421783 3537

Live tracking and technical data element details for ONEWEB-0332 (NORAD 49279). ONEWEB-0332 can be tracked NOW for your location showing map with azimuth and elevation plus other details from your city location.

Track the satellite on the map from your city or location and see movement details for azimuth, elevation, latitude, longitude, range, height, and movement on the map or in text.







IsCatalogInMostPopularTable: catalog: 49279, numindb: 4
Update: records affected: 1



GetName: 49279 ONEWEB-0332

Hit Count: updated at: Mon, 06 Dec 2021 15:25:06 GMT